Home   Weather   Samarkand   Past weeks

Flag for Uzbekistan Past Weather in Samarkand, Uzbekistan — Yesterday and Last 2 Weeks

Now
73 °F

Clear.


Feels Like: 77 °F
Forecast: 72 / 99 °F
Wind: 2 mph from North

Location: Samarkand

Current Time: Jul 25, 2017 at 2:00:52 am

Latest Report: Jul 25, 2017 at 12:30 am


Visibility: 4 mi

Pressure: 29.65 "Hg (27.28 "Hg at 721m altitude)

Humidity: 44%

Dew Point: 50 °F

Location of SamarkandLocation

Past Weather in Samarkand — Graph

°F

Samarkand Temperature Yesterday

Maximum temperature yesterday: 99 °F (at 2:30 pm)
Minimum temperature yesterday: 72 °F (at 5:00 am)
Average temperature yesterday: 85 °F

High & Low Weather Summary for the Past Weeks

 TemperatureHumidityPressure
High99 °F (Jul 24, 2:30 pm)77% (Jul 14, 3:30 am)29.98 "Hg (Jul 14, 3:30 am)
Low59 °F (Jul 14, 5:00 am)11% (Jul 11, 5:00 pm)29.65 "Hg (Jul 24, 1:30 pm)
Average81 °F28%29.82 "Hg
* Reported Jul 10 12:30 am — Jul 25 12:30 am, Samarkand. Weather by CustomWeather, © 2017

Note: Actual official high and low records may vary slightly from our data, if they occured in-between our weather recording intervals... More about our weather records

Advertising

Samarkand Weather History for the Previous 24 Hours

Scroll right to see more
 ConditionsComfort  
Time TempWeatherWind HumidityBarometerVisibility
12:30 am
Tue, Jul 25
73 °FClear.2 mph44%29.65 "Hg4 mi
11:30 pm
Mon, Jul 24
82 °FClear.5 mph30%29.65 "Hg4 mi
11:00 pm82 °FClear.2 mph32%29.65 "Hg4 mi
10:30 pm82 °FClear.5 mph32%29.68 "Hg4 mi
10:00 pm82 °FClear.5 mph32%29.68 "Hg4 mi
9:30 pm81 °FClear.2 mph37%29.68 "Hg4 mi
9:00 pm81 °FClear.2 mph39%29.68 "Hg4 mi
8:30 pm84 °FClear.7 mph33%29.68 "Hg4 mi
8:00 pm88 °FClear.9 mph29%29.65 "HgN/A
7:30 pm90 °FClear.14 mph26%29.65 "HgN/A
7:00 pm91 °FClear.12 mph24%29.65 "HgN/A
6:30 pm93 °FClear.16 mph23%29.65 "HgN/A
5:30 pm95 °FClear.18 mph16%29.65 "HgN/A
5:00 pm97 °FClear.16 mph14%29.65 "HgN/A
4:30 pm97 °FClear.14 mph17%29.65 "HgN/A
4:00 pm97 °FClear.14 mph16%29.65 "HgN/A
3:30 pm97 °FClear.14 mph14%29.65 "HgN/A
2:30 pm99 °FClear.7 mph15%29.65 "HgN/A
1:30 pm97 °FClear.5 mph14%29.65 "HgN/A
1:00 pm97 °FClear.7 mph13%29.68 "HgN/A
12:30 pm95 °FClear.7 mph14%29.68 "HgN/A
11:30 am93 °FClear.9 mph17%29.68 "HgN/A
10:30 am90 °FClear.9 mph21%29.68 "HgN/A
9:30 am88 °FClear.9 mph22%29.68 "HgN/A
9:00 am86 °FClear.5 mph24%29.71 "HgN/A
8:30 am82 °FClear.7 mph28%29.71 "HgN/A
8:00 am81 °FClear.7 mph30%29.71 "HgN/A
7:30 am79 °FClear.7 mph28%29.71 "HgN/A
7:00 am75 °FClear.7 mph34%29.71 "HgN/A
6:30 am73 °FClear.9 mph33%29.71 "HgN/A
5:30 am72 °FClear.7 mph38%29.71 "HgN/A
5:00 am72 °FClear.7 mph38%29.68 "Hg4 mi
4:30 am75 °FClear.7 mph31%29.68 "Hg4 mi
4:00 am77 °FClear.7 mph26%29.68 "Hg4 mi
3:30 am77 °FClear.9 mph26%29.68 "Hg4 mi
3:00 am79 °FClear.7 mph24%29.68 "Hg4 mi
2:30 am77 °FClear.5 mph26%29.71 "Hg4 mi
2:00 am75 °FClear.2 mph29%29.71 "Hg4 mi
Weather by CustomWeather, © 2017

See weather overviewHow to use our weather pages